Terminal Aerodrome Forecast
Issued by NWS Charleston, WV

Current Version | Previous Version | Text Only | Print | Product List | Glossary Off
Versions: 1 2 3 4 5 6 7 8 9 10 11 12 13 14 15 16 17 18 19 20 21 22 23 24 25 26 27 28 29

238
FTUS41 KRLX 221237 AAA
TAFBKW
TAF AMD
KBKW 221237Z 2213/2312 26007KT 3SM BR BKN004
     FM221330 27007KT 6SM BR BKN007
     FM221400 27007KT 6SM BR SCT007
     FM221430 29007KT P6SM SCT200
     FM230400 VRB03KT P6SM SCT040=

USA.gov is the U.S. government's official web portal to all federal, state and local government web resources and services.